weather.gov     
National Weather Service

Terminal Aerodrome Forecast
NWS Homepage
This page is being discontinued on March 12, 2014.
The same data is available at this site. Please update your bookmarks.
Thank you, and we apologize for the inconvenience.
Please send an email to SR-SRH.Webmaster@noaa.gov with any concerns.


Current Version
Previous Version:    01  02  03  04  05  06  07  08  09  10  11  12  13  14  
[Printable]
706
FTUS41 KGYX 220530
TAFCON
TAF
KCON 220530Z 2206/2306 01007KT 6SM SHRA OVC010
     FM221600 36012G22KT 4SM -RADZ OVC010
     FM230200 35015G23KT 4SM -RA BR OVC007=




706
FTUS41 KGYX 220530
TAFCON
TAF
KCON 220530Z 2206/2306 01007KT 6SM SHRA OVC010
     FM221600 36012G22KT 4SM -RADZ OVC010
     FM230200 35015G23KT 4SM -RA BR OVC007=


U.S. Dept. of Commerce
NOAA National Weather Service
1325 East West Highway
Silver Spring, MD 20910
E-mail: w-nws.webmaster@noaa.gov
Page last modified: May 16, 2007
NATIONAL WEATHER SERVICE: for Safety, for Work, for Fun - FOR LIFE